World > North America > United States > Ohio > Hollansburg

Hourly Hollansburg, OH Regional Weather

Feedback E-mail the Weather

Quick WX

Hollansburg, OH Weather Maps

°F °C°F °C
Hollansburg Weather Map
UTC Time: 8/18/2022, 04:43
Your Time:

Hollansburg, OH Regional Weather

Expires:202208180500;;233061
ASUS41 KCLE 180410
RWRCLE
OHIO REGIONAL WEATHER ROUNDUP
NATIONAL WEATHER SERVICE CLEVELAND, OH
1200 AM EDT THU AUG 18 2022

NOTE: "FAIR" INDICATES FEW OR NO CLOUDS BELOW 12,000 FEET WITH NO
SIGNIFICANT WEATHER AND/OR OBSTRUCTIONS TO VISIBILITY.


OHZ042-051>053-060>062-070>072-077>081-180500-
  SOUTHWEST OHIO
  
CITY           SKY/WX    TMP DP  RH WIND       PRES   REMARKS
CINC-COVINGTON PTCLDY    72  60  66 NE7       30.04S                  
CINC-LUNKEN    PTCLDY    66  62  87 CALM      30.03S                  
HAMILTON       CLEAR     66  60  81 N5        30.05S                  
DAYTON         CLEAR     65  58  78 CALM      30.06S                  
WRIGHT-PAT AFB CLEAR     65  60  85 CALM      30.01S                  
DAYTON GENERAL CLEAR     67  60  78 NE5       30.04S                  
WILMINGTON     CLEAR     64  60  87 N5        30.04S                  
$$


SKY/WX - Weather  TMP - Temperature  DP - Dew Point  RH - Humidity
WIND - Wind Direction/Speed PRES - Barometric Pressure VSB - Visibility
WCI - Wind Chill Index E13G22 Wind - East Wind 13 mph/Gusts of 22 mph

Trending Headlines

Hollansburg Radar Loop



Hollansburg Quick Facts


National Two Day Weather Forecast


E-mail the Hollansburg Weather Forecast

Voice your opinion or tell us about page issues...